Home   Weather   Glyfada   Past weeks

Flag for Greece Past Weather in Glyfada, Greece — Yesterday and Last 2 Weeks

Now
61 °F

Partly sunny.


Feels Like: 61 °F
Forecast: 53 / 58 °F
Wind: 8 mph from Northeast

Location: Eleftherios Venizelos International Airport

Current Time: Dec 3, 2016 at 1:37:30 pm

Latest Report: Dec 3, 2016 at 12:50 pm


Visibility: N/A

Pressure: 30.15 "Hg

Humidity: 52%

Dew Point: 43 °F

Location of GlyfadaLocation

Past Weather in Glyfada — Graph

°F

Glyfada Temperature Yesterday

Maximum temperature yesterday: 61 °F (at 3:20 pm)
Minimum temperature yesterday: 34 °F (at 6:20 am)
Average temperature yesterday: 51 °F

High & Low Weather Summary for the Past Weeks

 TemperatureHumidityPressure
High66 °F (Nov 27, 11:50 am)100% (Nov 28, 11:20 pm)30.33 "Hg (Nov 28, 11:20 pm)
Low34 °F (Dec 2, 6:20 am)34% (Dec 1, 1:50 pm)29.74 "Hg (Nov 28, 7:20 pm)
Average54 °F70%30.11 "Hg
* Reported Nov 18 12:20 pm — Dec 3 12:20 pm, Glyfada, Weather by CustomWeather, © 2016

Note: Actual official high and low records may vary slightly from our data, if they occured in-between our weather recording intervals... More about our weather records

Advertising

Glyfada Weather History for the Previous 24 Hours

Scroll right to see more
 ConditionsComfort  
Time TempWeatherWind HumidityBarometerVisibility
12:20 pm
Sat, Dec 3
61 °FPartly sunny.8 mph55%30.15 "HgN/A
11:50 am59 °FPartly sunny.8 mph59%30.15 "HgN/A
11:20 am59 °FPartly sunny.8 mph55%30.18 "HgN/A
10:50 am59 °FPartly sunny.2 mph63%30.15 "HgN/A
9:50 am54 °FScattered clouds.2 mph72%30.15 "HgN/A
9:20 am50 °FPartly sunny.No wind82%30.15 "HgN/A
8:50 am48 °FPartly sunny.1 mph82%30.12 "HgN/A
8:20 am46 °FPartly sunny.No wind76%30.12 "HgN/A
7:50 am45 °FScattered clouds.1 mph81%30.12 "HgN/A
7:20 am45 °FPassing clouds.3 mph81%30.09 "HgN/A
6:50 am45 °FPassing clouds.1 mph81%30.09 "HgN/A
6:20 am43 °FPassing clouds.1 mph87%30.09 "HgN/A
5:50 am45 °FPassing clouds.1 mph87%30.09 "HgN/A
5:20 am45 °FPassing clouds.No wind81%30.07 "HgN/A
4:50 am43 °FPassing clouds.No wind87%30.07 "HgN/A
3:50 am46 °FPassing clouds.2 mph82%30.07 "HgN/A
3:20 am50 °FPassing clouds.3 mph71%30.04 "HgN/A
2:50 am50 °FPassing clouds.5 mph67%30.04 "HgN/A
2:20 am54 °FPassing clouds.1 mph63%30.04 "HgN/A
12:50 am59 °FPassing clouds.8 mph55%30.01 "HgN/A
12:20 am59 °FPassing clouds.5 mph55%30.01 "HgN/A
11:50 pm
Fri, Dec 2
59 °FPassing clouds.10 mph55%29.98 "HgN/A
11:20 pm57 °FPassing clouds.13 mph59%29.98 "HgN/A
10:20 pm59 °FPassing clouds.20 mph55%29.95 "HgN/A
9:50 pm59 °FPassing clouds.10 mph55%29.95 "HgN/A
9:20 pm59 °FPassing clouds.17 mph55%29.92 "HgN/A
8:50 pm59 °FPassing clouds.22 mph55%29.92 "HgN/A
8:20 pm59 °FPassing clouds.24 mph51%29.92 "HgN/A
7:50 pm59 °FPassing clouds.23 mph51%29.92 "HgN/A
7:20 pm59 °FPassing clouds.12 mph51%29.92 "HgN/A
6:50 pm59 °FPassing clouds.16 mph48%29.95 "HgN/A
6:20 pm59 °FPassing clouds.7 mph45%29.92 "HgN/A
5:50 pm59 °FPassing clouds.10 mph45%29.92 "HgN/A
5:20 pm57 °FPassing clouds.12 mph41%29.92 "HgN/A
4:50 pm59 °FPassing clouds.13 mph36%29.92 "HgN/A
4:20 pm59 °FPassing clouds.15 mph39%29.89 "HgN/A
3:50 pm59 °FPassing clouds.13 mph42%29.92 "HgN/A
3:20 pm61 °FPassing clouds.14 mph42%29.92 "HgN/A
2:50 pm59 °FPassing clouds.14 mph45%29.92 "HgN/A
2:20 pm59 °FPassing clouds.10 mph42%29.92 "HgN/A
1:50 pm59 °FPassing clouds.10 mph42%29.95 "HgN/A
1:20 pm59 °FPassing clouds.12 mph39%29.95 "HgN/A
Weather by CustomWeather, © 2016

See weather overviewHow to use our weather pages